This demonstration page uses our WeatherBlox Daily Observations layout. Learn more.

Left ArrowRight Arrow

Hourly Observations for May 24, 2022

Temp ( °F °C ) Dew Point ( °F °C ) Humidity (%) Winds ( mph kmh ) Pressure ( in mb ) Visibility ( mi km ) Precip ( " mm )
12:53 am 00:53 Cloudy 50 10 47 8.3 89 89 NNE 6 9 30.12 1020 10 16 0.00 0.00
1:53 am 01:53 Cloudy 50 10 46 7.8 86 86 NE 7 11 30.10 1019 10 16 0.00 0.00
2:53 am 02:53 Cloudy 50 10 46 7.8 86 86 NE 7 11 30.09 1019 10 16 0.00 0.00
3:53 am 03:53 Cloudy 50 10 44 6.7 80 80 ENE 9 15 30.08 1019 10 16 0.00 0.00
4:53 am 04:53 Cloudy 49 9.4 44 6.7 83 83 ENE 7 11 30.07 1018 10 16 0.00 0.00
5:53 am 05:53 Partly Cloudy 48 8.9 43 6.1 83 83 ENE 6 9 30.07 1018 10 16 0.00 0.00
6:53 am 06:53 Cloudy 49 9.4 43 6.1 80 80 ENE 6 9 30.06 1018 10 16 0.00 0.00
7:53 am 07:53 Cloudy 50 10 44 6.7 80 80 NE 8 13 30.06 1018 10 16 0.00 0.00
8:53 am 08:53 Cloudy 51 10.6 44 6.7 77 77 NE 10 17 30.06 1018 10 16 0.00 0.00
9:53 am 09:53 Cloudy 52 11.1 43 6.1 72 72 ENE 10 17 30.05 1018 10 16 0.00 0.00
10:53 am 10:53 Cloudy 53 11.7 43 6.1 69 69 ENE 10 17 30.04 1017 10 16 0.00 0.00
11:53 am 11:53 Cloudy with Light Rain 53 11.7 45 7.2 74 74 ENE 12 19 30.03 1017 8 13 0.00 0.00
12:53 pm 12:53 Cloudy with Light Rain 51 10.6 48 8.9 89 89 ENE 14 22 30.01 1016 5 8 0.05 1.27
1:53 pm 13:53 Cloudy with Light Rain 51 10.6 49 9.4 92 92 NE 14 22 29.99 1016 4 6 0.10 2.54
2:00 pm 14:00 Cloudy with Light Rain 51 10.6 49 9.4 92 92 NE 15 24 29.98 1015 4 6 0.01 0.25
2:31 pm 14:31 Cloudy with Light Rain 51 10.6 48 8.9 89 89 ENE 22 35 29.97 1015 5 8 0.05 1.27
2:38 pm 14:38 Cloudy with Light Rain 51 10.6 47 8.3 86 86 NE 18 30 29.97 1015 5 8 0.06 1.52
2:53 pm 14:53 Cloudy with Light Rain 51 10.6 48 8.9 89 89 NE 17 28 29.97 1015 4 6 0.08 2.03
3:42 pm 15:42 Cloudy with Rain 50 10 49 9.4 96 96 NE 16 26 29.97 1015 3 5 0.07 1.78
3:51 pm 15:51 Cloudy with Rain 50 10 48 9 94 94 NE 20 31 29.97 1015 3 5 0.09 2.29
3:53 pm 15:53 Cloudy with Rain 50 10 49 9.4 96 96 NE 18 30 29.96 1015 3 5 0.09 2.29
4:38 pm 16:38 Cloudy with Light Rain 50 10 49 9.4 96 96 NE 21 33 29.95 1014 4 6 0.07 1.78
4:48 pm 16:48 Cloudy with Rain 50 10 48 9 94 94 NE 18 30 29.95 1014 3 5 0.09 2.29
4:53 pm 16:53 Cloudy with Rain 50 10 49 9.4 96 96 NE 21 33 29.94 1014 3 5 0.10 2.54
5:09 pm 17:09 Cloudy with Light Rain 50 10 49 9.4 96 96 NE 20 31 29.94 1014 4 6 0.03 0.76
5:19 pm 17:19 Cloudy with Light Rain 50 10 49 9.4 96 96 NE 23 37 29.94 1014 3 5 0.04 1.02
5:53 pm 17:53 Cloudy with Light Rain 50 10 48 8.9 93 93 NE 22 35 29.93 1014 3 4 0.08 2.03
6:44 pm 18:44 Cloudy with Light Rain 50 10 48 8.9 93 93 NE 20 31 29.93 1013 3 5 0.10 2.54
6:53 pm 18:53 Mostly Cloudy with Light Rain 50 10 48 8.9 93 93 NE 18 30 29.93 1013 3 5 0.11 2.79
7:18 pm 19:18 Cloudy with Rain 49 9.4 48 8.9 97 97 NE 20 31 29.94 1014 3 4 0.04 1.02
7:33 pm 19:33 Cloudy with Rain 49 9.4 48 8.9 97 97 NE 20 31 29.94 1014 2 3 0.07 1.78
7:53 pm 19:53 Cloudy with Light Rain 49 9.4 48 8.9 97 97 NE 21 33 29.93 1014 2 2 0.11 2.79
8:24 pm 20:24 Cloudy with Light Rain 48 8.9 48 8.9 100 100 NNE 21 33 29.94 1014 2 3 0.04 1.02
8:53 pm 20:53 Cloudy with Light Rain 48 8.9 47 8.3 96 96 NE 20 31 29.93 1014 3 5 0.05 1.27
9:53 pm 21:53 Cloudy with Light Rain 48 8.9 47 8.3 96 96 NE 17 28 29.93 1013 4 6 0.02 0.51
10:43 pm 22:43 Cloudy with Light Rain 48 8.9 47 8.3 96 96 NNE 17 28 29.95 1014 3 4 0.01 0.25
10:53 pm 22:53 Cloudy with Light Rain 48 8.9 48 8.9 100 100 NNE 17 28 29.94 1014 3 4 0.02 0.51
11:39 pm 23:39 Cloudy with Light Rain 48 8.9 47 8.3 96 96 NE 16 26 29.94 1014 3 5 0.02 0.51
11:53 pm 23:53 Cloudy with Light Rain 48 8.9 47 8.3 96 96 NE 18 30 29.92 1013 4 6 0.02 0.51

Powered by AerisWeather